Change the Weather History Date:

Thursday, September 26, 2013

  Actual Average Record
Temperature  
Mean Temperature 83 °F -  
Max Temperature 91 °F 87 °F 95 °F (2011)
Min Temperature 75 °F 73 °F 73 °F (2012)
Cooling Degree Days 18    
Growing Degree Days 33 (Base 50)    
Moisture  
Dew Point 75 °F    
Average Humidity 76    
Maximum Humidity 94    
Minimum Humidity 54    
Precipitation  
Precipitation 0.00 in 0.26 in - ()
Sea Level Pressure  
Sea Level Pressure 29.89 in    
Wind  
Wind Speed 3 mph ()    
Max Wind Speed 13 mph    
Max Gust Speed -    
Visibility 7.2 miles    
Events      
Averages and records for this station are not official NWS values.
T = Trace of Precipitation, MM = Missing Value Source: Averaged Metar Reports

Daily Weather History Graph

Daily Weather History Graph

Search for Another Location

Airport or City:

Trip Planner

Search our weather history database for the weather conditions in past years. The results will help you decide how hot, cold, wet, or windy it might be!

Date:

Astronomy

Sep. 26, 2013 Rise Set
Actual Time 5:54 AM AST 5:58 PM AST
Civil Twilight 5:33 AM AST 6:19 PM AST
Nautical Twilight 5:08 AM AST 6:44 PM AST
Astronomical Twilight 4:44 AM AST 7:08 PM AST
Moon 11:44 PM AST (9/26) 11:50 AM AST (9/26)
Length of Visible Light 12h 46m
Length of Day
12h 04m
Waning Gibbous, 55% of the Moon is Illuminated
Sep 26
Waning Gibbous
Sep 26
Last Quarter
Oct 4
New
Oct 11
First Quarter
Oct 18
Full

Hourly Weather History & Observations

Time (AST) Temp. Heat Index Dew Point Humidity Pressure Visibility Wind Dir Wind Speed Gust Speed Precip Events Conditions
12:00 AM 80.6 °F 86.2 °F 75.2 °F 84% 29.89 in 6.2 mi Calm Calm - N/A   Mostly Cloudy
1:00 AM 78.8 °F - 75.2 °F 89% 29.89 in 6.2 mi Calm Calm - N/A   Mostly Cloudy
2:00 AM 78 °F - 76 °F 94% 29.88 in 11 mi Calm Calm - -   Haze
2:00 AM 77.0 °F - 75.2 °F 94% 29.86 in 6.2 mi Calm Calm - N/A   Mostly Cloudy
3:00 AM 78.8 °F - 75.2 °F 89% 29.86 in 6.2 mi Calm Calm - N/A   Mostly Cloudy
4:00 AM 77.0 °F - 75.2 °F 94% 29.86 in 6.2 mi Calm Calm - N/A   Mostly Cloudy
5:00 AM 78.8 °F - 77.0 °F 94% 29.89 in 6.2 mi Calm Calm - N/A   Mostly Cloudy
6:00 AM 77.0 °F - 75.2 °F 94% 29.89 in 6.2 mi Calm Calm - N/A   Mostly Cloudy
7:00 AM 80.6 °F 86.2 °F 75.2 °F 84% 29.92 in 6.2 mi East 4.6 mph - N/A   Mostly Cloudy
8:00 AM 85 °F - 75 °F 65% 29.93 in 11 mi East 6.9 mph - -   Haze
8:00 AM 84.2 °F 92.3 °F 75.2 °F 74% 29.92 in 6.2 mi East 6.9 mph - N/A   Mostly Cloudy
9:00 AM 87.8 °F 102.5 °F 78.8 °F 75% 29.95 in 6.2 mi ESE 8.1 mph - N/A   Mostly Cloudy
10:00 AM 89.6 °F 99.8 °F 75.2 °F 62% 29.95 in 6.2 mi ESE 11.5 mph - N/A   Mostly Cloudy
11:00 AM 90 °F - 76 °F 54% 29.94 in 11 mi SE 11.5 mph - -   Haze
11:00 AM 89.6 °F 99.8 °F 75.2 °F 62% 29.92 in 6.2 mi SE 11.5 mph - N/A   Mostly Cloudy
12:00 PM 93.2 °F 105.0 °F 75.2 °F 56% 29.89 in 6.2 mi ESE 12.7 mph - N/A   Mostly Cloudy
1:00 PM 91.4 °F 105.1 °F 77.0 °F 63% 29.86 in 6.2 mi ESE 11.5 mph - N/A   Mostly Cloudy
2:00 PM 90 °F - 76 °F 55% 29.85 in 10 mi SE 6.9 mph - -   Partly Cloudy
2:00 PM 89.6 °F 99.8 °F 75.2 °F 62% 29.83 in 6.2 mi ESE 11.5 mph - N/A   Mostly Cloudy
3:00 PM 89.6 °F 102.2 °F 77.0 °F 66% 29.80 in 6.2 mi ESE 11.5 mph - N/A   Mostly Cloudy
4:00 PM 87.8 °F 99.7 °F 77.0 °F 70% 29.83 in 6.2 mi SE 8.1 mph - N/A   Overcast
5:00 PM 86.0 °F 95.1 °F 75.2 °F 70% 29.83 in 6.2 mi Calm Calm - N/A   Overcast
6:00 PM 84.2 °F 92.3 °F 75.2 °F 74% 29.83 in 6.2 mi ESE 4.6 mph - N/A   Overcast
7:00 PM 82.4 °F 89.5 °F 75.2 °F 79% 29.86 in 6.2 mi Calm Calm - N/A   Mostly Cloudy
8:00 PM 82 °F - 76 °F 76% 29.89 in 9 mi Calm Calm - -   Haze
8:00 PM 82.4 °F 89.5 °F 75.2 °F 79% 29.89 in 6.2 mi Calm Calm - N/A   Mostly Cloudy
9:00 PM 80.6 °F 86.2 °F 75.2 °F 84% 29.89 in - Calm Calm - N/A   Clear
10:00 PM 80.6 °F 85.4 °F 73.4 °F 79% 29.92 in - Calm Calm - N/A   Clear
11:00 PM 79 °F - 73 °F 76% 29.94 in 11 mi Calm Calm - -   Haze
11:00 PM 78.8 °F - 73.4 °F 83% 29.92 in - Calm Calm - N/A   Clear